Location: Unspecified
(35.6961°N, 0.0000°E)
Time: 10:01:33
(UTC+00:00)

AO-7 - Visible Passes

Search period start: 19 June 2019 00:00
Search period end: 29 June 2019 00:00
Orbit: 1440 x 1459 km, 101.7° (Epoch: 18 June)

Date Brightness Start Highest point End Pass type
(mag) Time Alt. Az. Time Alt. Az. Time Alt. Az.
19 Jun ? 02:49:56 10° NNE 02:57:37 39° E 03:05:14 10° SSE visible
20 Jun ? 01:53:14 10° ENE 01:56:59 13° E 02:00:44 10° ESE visible
20 Jun ? 03:42:17 10° NNE 03:50:42 83° ESE 03:59:05 10° SSW visible
21 Jun ? 02:43:06 10° NE 02:50:34 35° E 02:57:58 10° SSE visible
22 Jun ? 01:47:23 10° ENE 01:49:52 11° E 01:52:21 10° ESE visible
22 Jun ? 03:35:18 10° NNE 03:43:42 76° ESE 03:52:04 10° SSW visible
23 Jun ? 02:36:19 10° NE 02:43:30 31° E 02:50:38 10° SSE visible
24 Jun ? 03:28:20 10° NNE 03:36:42 69° ESE 03:45:01 10° S visible
25 Jun ? 02:29:33 10° NE 02:36:26 28° E 02:43:16 10° SSE visible
26 Jun ? 03:21:23 10° NNE 03:29:41 62° ESE 03:37:56 10° S visible
27 Jun ? 02:22:50 10° NE 02:29:22 25° E 02:35:50 10° SSE visible
27 Jun ? 04:14:16 10° N 04:22:31 65° WNW 04:30:46 10° SSW visible
28 Jun ? 03:14:27 10° NNE 03:22:41 56° ESE 03:30:50 10° S visible
